Woodward, OK

8:50 PM CDT on June 26, 2017 (GMT -0500)
West Woodward

Weather History for KWWR - July, 2013

Change the Weather History Date:

Tuesday, July 9, 2013

  Actual Average (KGAG) Record (KGAG)
Temperature  
Mean Temperature 91 °F -  
Max Temperature 104 °F 95 °F 111 °F (2011)
Min Temperature 78 °F 69 °F 48 °F (1952)
Cooling Degree Days 26    
Growing Degree Days 41 (Base 50)    
Moisture  
Dew Point 57 °F    
Average Humidity 34    
Maximum Humidity 54    
Minimum Humidity 19    
Precipitation  
Precipitation 0.00 in - - ()
Sea Level Pressure  
Sea Level Pressure 30.02 in    
Wind  
Wind Speed 17 mph (SSW)    
Max Wind Speed 22 mph    
Max Gust Speed 28 mph    
Visibility 10 miles    
Events      
Averages and records for this station are not official NWS values.
T = Trace of Precipitation, MM = Missing Value Source: NWS Daily Summary

Daily Weather History Graph

Daily Weather History Graph

Search for Another Location

Airport or City:

Trip Planner

Search our weather history database for the weather conditions in past years. The results will help you decide how hot, cold, wet, or windy it might be!

Date:

Astronomy

Jul. 09, 2013 Rise Set
Actual Time 6:28 AM CDT 8:58 PM CDT
Civil Twilight 5:58 AM CDT 9:28 PM CDT
Nautical Twilight 5:20 AM CDT 10:05 PM CDT
Astronomical Twilight 4:39 AM CDT 10:46 PM CDT
Moon 7:50 AM CDT (7/9) 9:41 PM CDT (7/9)
Length of Visible Light 15h 30m
Length of Day
14h 30m
New Moon, 2% of the Moon is Illuminated
Jul 9
New Moon
Jul 15
First Quarter
Jul 22
Full
Jul 29
Last Quarter
Aug 6
New

Hourly Weather History & Observations

Time (CDT) Temp. Heat Index Dew Point Humidity Pressure Visibility Wind Dir Wind Speed Gust Speed Precip Events Conditions
12:15 AM 86.0 °F 85.4 °F 59.0 °F 40% 30.04 in 10.0 mi SSE 18.4 mph 21.9 mph N/A   Clear
12:35 AM 84.2 °F 84.4 °F 60.8 °F 45% 30.04 in 10.0 mi SSE 20.7 mph 25.3 mph N/A   Clear
12:55 AM 84.2 °F 85.0 °F 62.6 °F 48% 30.03 in 10.0 mi SSE 18.4 mph - N/A   Clear
1:15 AM 82.4 °F 83.4 °F 62.6 °F 51% 30.04 in 10.0 mi SSE 20.7 mph 25.3 mph N/A   Clear
1:35 AM 82.4 °F 83.4 °F 62.6 °F 51% 30.03 in 10.0 mi SSE 20.7 mph 25.3 mph N/A   Clear
1:55 AM 82.4 °F 83.4 °F 62.6 °F 51% 30.03 in 10.0 mi South 18.4 mph 26.5 mph N/A   Clear
2:15 AM 82.4 °F 83.4 °F 62.6 °F 51% 30.03 in 10.0 mi South 20.7 mph 27.6 mph N/A   Clear
2:35 AM 82.4 °F 83.4 °F 62.6 °F 51% 30.03 in 10.0 mi South 19.6 mph 26.5 mph N/A   Clear
2:55 AM 82.4 °F 83.4 °F 62.6 °F 51% 30.04 in 10.0 mi South 19.6 mph 26.5 mph N/A   Clear
3:15 AM 82.4 °F 83.4 °F 62.6 °F 51% 30.03 in 10.0 mi South 20.7 mph 26.5 mph N/A   Clear
3:35 AM 82.4 °F 83.4 °F 62.6 °F 51% 30.04 in 10.0 mi South 21.9 mph 26.5 mph N/A   Clear
3:55 AM 82.4 °F 83.4 °F 62.6 °F 51% 30.03 in 10.0 mi South 18.4 mph - N/A   Clear
4:15 AM 82.4 °F 83.4 °F 62.6 °F 51% 30.03 in 10.0 mi South 19.6 mph - N/A   Clear
4:35 AM 80.6 °F 81.5 °F 60.8 °F 51% 30.03 in 10.0 mi South 17.3 mph - N/A   Clear
4:55 AM 80.6 °F 81.5 °F 60.8 °F 51% 30.03 in 10.0 mi South 16.1 mph 21.9 mph N/A   Clear
5:15 AM 80.6 °F 81.5 °F 60.8 °F 51% 30.03 in 10.0 mi South 17.3 mph - N/A   Clear
5:35 AM 80.6 °F 81.5 °F 60.8 °F 51% 30.03 in 10.0 mi South 17.3 mph 23.0 mph N/A   Clear
5:55 AM 80.6 °F 81.5 °F 60.8 °F 51% 30.03 in 10.0 mi South 16.1 mph 21.9 mph N/A   Clear
6:15 AM 80.6 °F 81.5 °F 60.8 °F 51% 30.03 in 10.0 mi South 16.1 mph - N/A   Clear
6:35 AM 78.8 °F - 60.8 °F 54% 30.03 in 10.0 mi South 16.1 mph - N/A   Clear
6:55 AM 78.8 °F - 60.8 °F 54% 30.04 in 10.0 mi SSW 16.1 mph 21.9 mph N/A   Clear
7:15 AM 80.6 °F 81.5 °F 60.8 °F 51% 30.04 in 10.0 mi SSW 17.3 mph - N/A   Clear
7:35 AM 80.6 °F 81.5 °F 60.8 °F 51% 30.04 in 10.0 mi SSW 17.3 mph - N/A   Clear
7:55 AM 80.6 °F 81.5 °F 60.8 °F 51% 30.05 in 10.0 mi SSW 17.3 mph - N/A   Clear
8:15 AM 82.4 °F 82.9 °F 60.8 °F 48% 30.05 in 10.0 mi SSW 18.4 mph 25.3 mph N/A   Clear
8:35 AM 84.2 °F 84.4 °F 60.8 °F 45% 30.05 in 10.0 mi SSW 18.4 mph - N/A   Clear
8:55 AM 86.0 °F 86.1 °F 60.8 °F 43% 30.07 in 10.0 mi SSW 19.6 mph 25.3 mph N/A   Clear
9:15 AM 87.8 °F 87.1 °F 59.0 °F 38% 30.07 in 10.0 mi SW 20.7 mph 26.5 mph N/A   Clear
9:35 AM 87.8 °F 87.1 °F 59.0 °F 38% 30.07 in 10.0 mi SW 19.6 mph 27.6 mph N/A   Clear
9:55 AM 89.6 °F 88.9 °F 59.0 °F 36% 30.07 in 10.0 mi SW 18.4 mph 26.5 mph N/A   Clear
10:15 AM 91.4 °F 90.7 °F 59.0 °F 34% 30.07 in 10.0 mi WSW 19.6 mph 23.0 mph N/A   Clear
10:35 AM 93.2 °F 92.6 °F 59.0 °F 32% 30.07 in 10.0 mi WSW 17.3 mph 24.2 mph N/A   Clear
10:55 AM 95.0 °F 94.4 °F 59.0 °F 30% 30.07 in 10.0 mi SW 12.7 mph 24.2 mph N/A   Clear
11:15 AM 96.8 °F 96.2 °F 59.0 °F 28% 30.07 in 10.0 mi SW 16.1 mph 23.0 mph N/A   Clear
11:35 AM 96.8 °F 96.2 °F 59.0 °F 28% 30.07 in 10.0 mi SW 16.1 mph 20.7 mph N/A   Clear
11:55 AM 98.6 °F 98.5 °F 59.0 °F 27% 30.07 in 10.0 mi SW 15.0 mph 23.0 mph N/A   Clear
12:15 PM 98.6 °F 97.6 °F 57.2 °F 25% 30.06 in 10.0 mi SW 15.0 mph - N/A   Clear
12:35 PM 100.4 °F 99.7 °F 57.2 °F 24% 30.06 in 10.0 mi SW 13.8 mph 25.3 mph N/A   Clear
12:55 PM 100.4 °F 98.8 °F 55.4 °F 22% 30.05 in 10.0 mi SW 16.1 mph 20.7 mph N/A   Clear
1:15 PM 100.4 °F 98.8 °F 55.4 °F 22% 30.05 in 10.0 mi SSW 15.0 mph 20.7 mph N/A   Clear
1:35 PM 100.4 °F 98.8 °F 55.4 °F 22% 30.04 in 10.0 mi WSW 10.4 mph 18.4 mph N/A   Clear
1:55 PM 102.2 °F 100.4 °F 53.6 °F 20% 30.03 in 10.0 mi SSW 12.7 mph 20.7 mph N/A   Scattered Clouds
2:15 PM 104.0 °F 102.3 °F 53.6 °F 19% 30.03 in 10.0 mi South 11.5 mph - N/A   Clear
2:35 PM 104.0 °F 102.3 °F 53.6 °F 19% 30.02 in 10.0 mi SW 16.1 mph 23.0 mph N/A   Scattered Clouds
2:55 PM 102.2 °F 100.4 °F 53.6 °F 20% 30.02 in 10.0 mi SW 15.0 mph 21.9 mph N/A   Scattered Clouds
3:15 PM 104.0 °F 102.3 °F 53.6 °F 19% 30.02 in 10.0 mi SSW 8.1 mph 21.9 mph N/A   Scattered Clouds
3:35 PM 104.0 °F 102.3 °F 53.6 °F 19% 30.01 in 10.0 mi South 11.5 mph - N/A   Scattered Clouds
3:55 PM 102.2 °F 100.4 °F 53.6 °F 20% 30.01 in 10.0 mi South 10.4 mph 20.7 mph N/A   Scattered Clouds
4:15 PM 104.0 °F 102.3 °F 53.6 °F 19% 29.99 in 10.0 mi South 17.3 mph 23.0 mph N/A   Scattered Clouds
4:35 PM 104.0 °F 102.3 °F 53.6 °F 19% 29.99 in 10.0 mi South 9.2 mph - N/A   Clear
4:55 PM 104.0 °F 102.3 °F 53.6 °F 19% 29.99 in 10.0 mi South 13.8 mph 17.3 mph N/A   Clear
5:15 PM 104.0 °F 102.3 °F 53.6 °F 19% 29.98 in 10.0 mi SSW 13.8 mph 18.4 mph N/A   Scattered Clouds
5:35 PM 104.0 °F 102.3 °F 53.6 °F 19% 29.98 in 10.0 mi South 12.7 mph 19.6 mph N/A   Clear
5:55 PM 104.0 °F 102.3 °F 53.6 °F 19% 29.97 in 10.0 mi South 18.4 mph 24.2 mph N/A   Scattered Clouds
6:15 PM 102.2 °F 100.4 °F 53.6 °F 20% 29.97 in 10.0 mi SSW 13.8 mph 21.9 mph N/A   Scattered Clouds
6:35 PM 102.2 °F 100.4 °F 53.6 °F 20% 29.96 in 10.0 mi South 15.0 mph 18.4 mph N/A   Clear
6:55 PM 100.4 °F 98.4 °F 53.6 °F 21% 29.97 in 10.0 mi South 12.7 mph - N/A   Clear
7:15 PM 100.4 °F 98.4 °F 53.6 °F 21% 29.97 in 10.0 mi South 17.3 mph - N/A   Clear
7:35 PM 100.4 °F 98.4 °F 53.6 °F 21% 29.98 in 10.0 mi South 12.7 mph 19.6 mph N/A   Clear
7:55 PM 98.6 °F 96.4 °F 53.6 °F 22% 29.97 in 10.0 mi South 10.4 mph - N/A   Clear
8:15 PM 96.8 °F 94.4 °F 53.6 °F 23% 29.97 in 10.0 mi South 11.5 mph - N/A   Clear
8:35 PM 96.8 °F 94.4 °F 53.6 °F 23% 29.97 in 10.0 mi South 12.7 mph - N/A   Clear
8:55 PM 95.0 °F 92.7 °F 53.6 °F 25% 29.99 in 10.0 mi South 10.4 mph - N/A   Clear
9:15 PM 93.2 °F 90.8 °F 53.6 °F 26% 29.99 in 10.0 mi South 9.2 mph - N/A   Clear
9:35 PM 91.4 °F 89.1 °F 53.6 °F 28% 29.99 in 10.0 mi South 10.4 mph - N/A   Clear
9:55 PM 91.4 °F 89.1 °F 53.6 °F 28% 30.00 in 10.0 mi South 11.5 mph - N/A   Clear
10:15 PM 91.4 °F 89.1 °F 53.6 °F 28% 30.01 in 10.0 mi South 9.2 mph - N/A   Clear
10:35 PM 89.6 °F 87.3 °F 53.6 °F 29% 30.01 in 10.0 mi South 10.4 mph - N/A   Clear
10:55 PM 89.6 °F 87.3 °F 53.6 °F 29% 30.01 in 10.0 mi South 12.7 mph - N/A   Clear
11:15 PM 89.6 °F 87.3 °F 53.6 °F 29% 30.02 in 10.0 mi South 12.7 mph - N/A   Clear
11:35 PM 89.6 °F 87.3 °F 53.6 °F 29% 30.02 in 10.0 mi South 12.7 mph 18.4 mph N/A   Clear
11:55 PM 89.6 °F 87.3 °F 53.6 °F 29% 30.02 in 10.0 mi South 15.0 mph - N/A   Clear